TimeEDT,TemperatureF,Dew PointF,Humidity,Sea Level PressureIn,VisibilityMPH,Wind Direction,Wind SpeedMPH,Gust SpeedMPH,PrecipitationIn,Events,Conditions,WindDirDegrees,DateUTC
12:54 AM,62.1,57.9,86,29.91,10.0,SSE,4.6,-,N/A,,Mostly Cloudy,150,2013-10-17 04:54:00
1:37 AM,62.6,59.0,88,29.89,10.0,Calm,Calm,-,N/A,,Mostly Cloudy,0,2013-10-17 05:37:00
1:54 AM,63.0,59.0,87,29.91,10.0,SE,3.5,-,N/A,,Overcast,130,2013-10-17 05:54:00
2:54 AM,63.0,59.0,87,29.90,9.0,Calm,Calm,-,N/A,,Overcast,0,2013-10-17 06:54:00
3:54 AM,64.0,60.1,87,29.88,10.0,Calm,Calm,-,0.00,,Overcast,0,2013-10-17 07:54:00
4:09 AM,62.6,60.8,94,29.87,10.0,Calm,Calm,-,0.00,Rain,Light Rain,0,2013-10-17 08:09:00
4:46 AM,62.6,60.8,94,29.87,10.0,Calm,Calm,-,0.00,,Overcast,0,2013-10-17 08:46:00
4:54 AM,63.0,60.1,90,29.88,10.0,Calm,Calm,-,0.00,,Overcast,0,2013-10-17 08:54:00
5:54 AM,62.1,59.0,90,29.89,9.0,South,3.5,-,N/A,,Mostly Cloudy,180,2013-10-17 09:54:00
6:21 AM,62.6,60.8,94,29.88,8.0,Calm,Calm,-,N/A,,Mostly Cloudy,0,2013-10-17 10:21:00
6:29 AM,62.6,60.8,94,29.88,8.0,Calm,Calm,-,N/A,,Overcast,0,2013-10-17 10:29:00
6:54 AM,62.1,60.1,93,29.91,9.0,SW,3.5,-,N/A,,Overcast,220,2013-10-17 10:54:00
7:54 AM,63.0,60.1,90,29.91,7.0,WSW,3.5,-,N/A,,Overcast,250,2013-10-17 11:54:00
8:54 AM,64.0,61.0,90,29.92,3.0,Calm,Calm,-,N/A,,Mostly Cloudy,0,2013-10-17 12:54:00
9:16 AM,64.4,60.8,88,29.90,8.0,WSW,3.5,-,N/A,,Scattered Clouds,240,2013-10-17 13:16:00
9:54 AM,66.0,60.1,81,29.91,4.0,NW,4.6,-,N/A,,Partly Cloudy,310,2013-10-17 13:54:00
10:54 AM,69.1,60.1,73,29.90,3.0,Calm,Calm,-,N/A,,Scattered Clouds,0,2013-10-17 14:54:00
11:30 AM,68.0,57.2,68,29.89,3.0,Calm,Calm,-,N/A,,Overcast,0,2013-10-17 15:30:00
11:45 AM,69.8,57.2,64,29.88,3.0,Calm,Calm,-,N/A,,Overcast,0,2013-10-17 15:45:00
11:54 AM,70.0,57.0,63,29.89,3.0,Calm,Calm,-,N/A,,Overcast,0,2013-10-17 15:54:00
12:54 PM,72.0,57.0,59,29.86,10.0,Variable,4.6,-,N/A,,Mostly Cloudy,0,2013-10-17 16:54:00
1:54 PM,73.0,59.0,61,29.83,10.0,Variable,3.5,-,N/A,,Mostly Cloudy,0,2013-10-17 17:54:00
2:54 PM,72.0,60.1,66,29.81,10.0,SSE,3.5,-,N/A,,Overcast,150,2013-10-17 18:54:00
3:54 PM,72.0,60.1,66,29.80,10.0,South,6.9,-,N/A,,Overcast,180,2013-10-17 19:54:00
4:54 PM,71.1,60.1,68,29.77,10.0,SSE,10.4,-,N/A,,Overcast,160,2013-10-17 20:54:00
5:54 PM,68.0,61.0,78,29.75,10.0,SSE,8.1,-,0.00,Rain,Light Rain,150,2013-10-17 21:54:00
6:54 PM,66.9,61.0,81,29.73,10.0,SSE,8.1,-,0.00,,Mostly Cloudy,160,2013-10-17 22:54:00
7:08 PM,66.2,60.8,83,29.71,10.0,SE,8.1,-,N/A,,Overcast,140,2013-10-17 23:08:00
7:25 PM,66.2,60.8,83,29.71,10.0,SSE,9.2,-,N/A,,Mostly Cloudy,150,2013-10-17 23:25:00
7:54 PM,66.9,61.0,81,29.72,10.0,SSE,8.1,17.3,N/A,,Overcast,160,2013-10-17 23:54:00
8:54 PM,66.9,62.1,84,29.71,10.0,SSE,10.4,-,N/A,,Overcast,150,2013-10-18 00:54:00
9:36 PM,66.2,62.6,88,29.69,10.0,SSE,10.4,-,N/A,,Overcast,150,2013-10-18 01:36:00
9:54 PM,66.9,62.1,84,29.70,10.0,South,9.2,-,N/A,,Overcast,170,2013-10-18 01:54:00
10:14 PM,66.2,62.6,88,29.70,7.0,SSW,13.8,18.4,0.01,Rain,Rain,200,2013-10-18 02:14:00
10:43 PM,66.2,60.8,83,29.72,10.0,West,18.4,25.3,0.02,Rain,Light Rain,260,2013-10-18 02:43:00
10:54 PM,66.0,60.1,81,29.75,10.0,West,13.8,26.5,0.02,Rain,Light Rain,270,2013-10-18 02:54:00
11:54 PM,63.0,54.0,72,29.77,10.0,West,13.8,24.2,0.00,,Overcast,280,2013-10-18 03:54:00